Delta, CO

9:35 AM MDT on August 24, 2016 (GMT -0600)
Delta

Weather History for KAJZ - March, 2013

Change the Weather History Date:

Thursday, March 21, 2013

  Actual Average (KMTJ) Record (KMTJ)
Temperature  
Mean Temperature 44 °F 43 °F  
Max Temperature 55 °F 56 °F 77 °F (2004)
Min Temperature 32 °F 29 °F 26 °F (2002)
Degree Days  
Heating Degree Days 22 22  
Month to date heating degree days 529  
Since 1 July heating degree days 5244  
Cooling Degree Days 0 0  
Month to date cooling degree days 0  
Year to date cooling degree days 0  
Moisture  
Dew Point 25 °F    
Average Humidity 49    
Maximum Humidity 92    
Minimum Humidity 12    
Precipitation  
Precipitation 0.00 in 0.03 in 0.06 in (2013)
Month to date precipitation 0.66  
Year to date precipitation 1.89  
Sea Level Pressure  
Sea Level Pressure 29.80 in    
Wind  
Wind Speed 10 mph (North)    
Max Wind Speed 41 mph    
Max Gust Speed 51 mph    
Visibility 10 miles    
Events Rain , Thunderstorm    
T = Trace of Precipitation, MM = Missing Value Source: NWS Daily Summary

Daily Weather History Graph

Daily Weather History Graph

Search for Another Location

Airport or City:

Trip Planner

Search our weather history database for the weather conditions in past years. The results will help you decide how hot, cold, wet, or windy it might be!

Date:

Astronomy

Mar. 21, 2013 Rise Set
Actual Time 7:13 AM MDT 7:25 PM MDT
Civil Twilight 6:47 AM MDT 7:52 PM MDT
Nautical Twilight 6:16 AM MDT 8:23 PM MDT
Astronomical Twilight 5:44 AM MDT 8:54 PM MDT
Moon 2:01 PM MDT (3/21) 3:34 AM MDT (3/21)
Length of Visible Light 13h 04m
Length of Day
12h 11m
Waxing Gibbous, 69% of the Moon is Illuminated
Mar 21
Waxing Gibbous
Mar 27
Full
Apr 2
Last Quarter
Apr 10
New
Apr 18
First Quarter

Hourly Weather History & Observations

Time (MDT) Temp. Windchill Dew Point Humidity Pressure Visibility Wind Dir Wind Speed Gust Speed Precip Events Conditions
12:15 AM 46.4 °F 41.5 °F 32.0 °F 57% 29.88 in 10.0 mi ENE 10.4 mph - N/A   Overcast
12:35 AM 46.4 °F 44.3 °F 32.2 °F 58% 29.88 in 10.0 mi East 4.6 mph - N/A   Overcast
12:55 AM 45.9 °F 42.3 °F 32.0 °F 58% 29.86 in 10.0 mi East 6.9 mph - N/A   Overcast
1:15 AM 46.0 °F 41.9 °F 32.0 °F 58% 29.85 in 10.0 mi East 8.1 mph - N/A   Overcast
1:35 AM 46.0 °F 39.3 °F 32.4 °F 59% 29.83 in 10.0 mi NE 16.1 mph - N/A   Overcast
1:55 AM 46.6 °F - 32.0 °F 57% 29.83 in 10.0 mi ENE 9.2 mph - N/A   Overcast
2:15 AM 46.8 °F - 32.0 °F 57% 29.83 in 10.0 mi ESE 4.6 mph - N/A   Overcast
2:35 AM 46.0 °F 43.9 °F 32.9 °F 60% 29.83 in 10.0 mi SE 4.6 mph - N/A   Overcast
2:55 AM 45.3 °F 44.0 °F 32.9 °F 62% 29.82 in 10.0 mi ENE 3.5 mph - N/A   Overcast
3:15 AM 45.0 °F 41.8 °F 33.1 °F 63% 29.81 in 10.0 mi NE 5.8 mph - N/A   Overcast
3:35 AM 45.5 °F 40.8 °F 32.9 °F 61% 29.79 in 10.0 mi NE 9.2 mph - N/A   Overcast
3:55 AM 45.3 °F 41.1 °F 34.7 °F 66% 29.79 in 10.0 mi NNE 8.1 mph - N/A Rain Light Rain
4:15 AM 45.0 °F 38.9 °F 36.5 °F 72% 29.79 in 10.0 mi North 12.7 mph - N/A Rain Light Rain
4:35 AM 45.3 °F 39.3 °F 37.4 °F 74% 29.77 in 10.0 mi NNE 12.7 mph - N/A   Overcast
4:55 AM 44.6 °F 40.2 °F 38.5 °F 79% 29.78 in 10.0 mi North 8.1 mph - N/A Rain Light Rain
5:15 AM 44.2 °F 39.2 °F 38.7 °F 81% 29.79 in 10.0 mi North 9.2 mph - N/A Rain Light Rain
5:35 AM 44.8 °F 43.3 °F 37.9 °F 77% 29.79 in 10.0 mi West 3.5 mph - N/A Rain Light Rain
5:55 AM 44.2 °F 42.7 °F 39.4 °F 83% 29.78 in 10.0 mi East 3.5 mph - N/A Rain Light Rain
6:15 AM 43.9 °F 42.3 °F 39.4 °F 84% 29.78 in 10.0 mi ESE 3.5 mph - N/A Rain Light Rain
6:35 AM 42.6 °F 40.9 °F 39.9 °F 90% 29.78 in 10.0 mi ENE 3.5 mph - N/A   Overcast
6:55 AM 42.1 °F 40.2 °F 39.7 °F 91% 29.79 in 10.0 mi SE 3.5 mph - N/A   Overcast
7:15 AM 41.4 °F 38.4 °F 38.8 °F 91% 29.79 in 10.0 mi East 4.6 mph - N/A   Scattered Clouds
7:35 AM 40.1 °F 36.1 °F 37.6 °F 91% 29.79 in 10.0 mi NE 5.8 mph - N/A   Scattered Clouds
7:55 AM 41.0 °F 38.0 °F 38.8 °F 92% 29.79 in 10.0 mi NNE 4.6 mph - N/A   Mostly Cloudy
8:15 AM 41.9 °F 39.0 °F 38.8 °F 89% 29.78 in 10.0 mi North 4.6 mph - N/A Rain Light Rain
8:55 AM 44.1 °F 42.5 °F 38.5 °F 81% 29.78 in 10.0 mi NNE 3.5 mph - N/A Rain Light Rain
9:15 AM 45.0 °F 42.6 °F 39.2 °F 80% 29.77 in 10.0 mi ENE 4.6 mph - N/A   Mostly Cloudy
9:35 AM 46.4 °F 42.9 °F 39.4 °F 77% 29.75 in 10.0 mi NE 6.9 mph - N/A   Mostly Cloudy
9:55 AM 46.9 °F - 39.2 °F 74% 29.75 in 10.0 mi North 8.1 mph - N/A   Mostly Cloudy
10:15 AM 48.9 °F - 40.5 °F 73% 29.74 in 10.0 mi NE 10.4 mph - N/A   Mostly Cloudy
10:35 AM 50.4 °F - 40.6 °F 69% 29.74 in 10.0 mi NNE 10.4 mph - N/A   Scattered Clouds
10:55 AM 50.9 °F - 38.5 °F 62% 29.72 in 10.0 mi NE 6.9 mph - N/A   Mostly Cloudy
11:15 AM 47.1 °F - 38.5 °F 72% 29.73 in 7.0 mi NW 6.9 mph 24.2 mph N/A Rain Light Rain
11:35 AM 50.2 °F - 36.9 °F 60% 29.74 in 10.0 mi WNW 17.3 mph 27.6 mph N/A Thunderstorm Mostly Cloudy
11:55 AM 52.2 °F - 35.1 °F 52% 29.71 in 10.0 mi West 23.0 mph 28.8 mph N/A Thunderstorm Scattered Clouds
12:15 PM 55.9 °F - 32.4 °F 41% 29.71 in 10.0 mi West 29.9 mph 35.7 mph N/A   Mostly Cloudy
12:35 PM 52.9 °F - 33.1 °F 47% 29.74 in 10.0 mi WNW 41.4 mph 50.6 mph N/A   Mostly Cloudy
12:55 PM 51.3 °F - 31.6 °F 47% 29.74 in 10.0 mi WNW 21.9 mph 36.8 mph N/A   Scattered Clouds
1:15 PM 54.0 °F - 27.3 °F 36% 29.75 in 10.0 mi West 31.1 mph 36.8 mph N/A   Clear
1:35 PM 53.6 °F - 26.2 °F 35% 29.75 in 10.0 mi West 33.4 mph 41.4 mph N/A Thunderstorm Clear
1:55 PM 53.6 °F - 25.9 °F 34% 29.75 in 10.0 mi West 26.5 mph 33.4 mph N/A   Clear
2:15 PM 54.3 °F - 24.3 °F 31% 29.75 in 10.0 mi West 28.8 mph 36.8 mph N/A   Clear
2:35 PM 54.5 °F - 18.9 °F 25% 29.75 in 10.0 mi West 25.3 mph 38.0 mph N/A   Clear
2:55 PM 55.4 °F - 19.9 °F 25% 29.75 in 10.0 mi WNW 20.7 mph 29.9 mph N/A   Clear
3:15 PM 54.7 °F - 19.0 °F 25% 29.76 in 10.0 mi WNW 16.1 mph 29.9 mph N/A   Clear
3:35 PM 55.2 °F - 17.1 °F 22% 29.76 in 10.0 mi WNW 16.1 mph 23.0 mph N/A   Clear
3:55 PM 55.9 °F - 17.2 °F 22% 29.77 in 10.0 mi NW 12.7 mph 19.6 mph N/A   Clear
4:15 PM 55.4 °F - 15.3 °F 21% 29.77 in 10.0 mi West 11.5 mph 28.8 mph N/A   Scattered Clouds
4:35 PM 55.4 °F - 11.5 °F 17% 29.77 in 10.0 mi West 5.8 mph 17.3 mph N/A   Clear
4:55 PM 55.8 °F - 13.8 °F 19% 29.78 in 10.0 mi WNW 13.8 mph 26.5 mph N/A   Scattered Clouds
5:15 PM 54.1 °F - 6.6 °F 15% 29.78 in 10.0 mi West 6.9 mph 25.3 mph N/A   Scattered Clouds
5:35 PM 54.9 °F - 3.7 °F 13% 29.79 in 10.0 mi NW 12.7 mph 19.6 mph N/A   Clear
5:55 PM 54.0 °F - 2.7 °F 12% 29.79 in 10.0 mi NW 11.5 mph 24.2 mph N/A   Clear
6:15 PM 54.0 °F - 2.3 °F 12% 29.81 in 10.0 mi NW 13.8 mph 19.6 mph N/A   Clear
6:35 PM 53.1 °F - 1.8 °F 12% 29.82 in 10.0 mi NW 11.5 mph - N/A   Clear
6:55 PM 52.0 °F - 1.8 °F 13% 29.83 in 10.0 mi NW 10.4 mph - N/A   Clear
7:15 PM 50.7 °F - 0.7 °F 13% 29.83 in 10.0 mi NW 11.5 mph 17.3 mph N/A   Clear
7:35 PM 49.5 °F - 0.1 °F 13% 29.84 in 10.0 mi WNW 10.4 mph - N/A   Clear
7:55 PM 48.0 °F - 1.4 °F 15% 29.85 in 10.0 mi WNW 4.6 mph - N/A   Clear
8:15 PM 47.5 °F - 0.9 °F 15% 29.85 in 10.0 mi NW 4.6 mph - N/A   Clear
8:35 PM 43.2 °F 41.5 °F 6.6 °F 22% 29.85 in 10.0 mi NNW 3.5 mph - N/A   Clear
8:55 PM 42.8 °F 39.3 °F 5.7 °F 22% 29.85 in 10.0 mi NW 5.8 mph - N/A   Clear
9:15 PM 44.6 °F 40.7 °F 2.5 °F 18% 29.86 in 10.0 mi NW 6.9 mph - N/A   Clear
9:35 PM 42.1 °F 38.4 °F 6.3 °F 23% 29.86 in 10.0 mi NW 5.8 mph - N/A   Clear
9:55 PM 38.8 °F 35.4 °F 6.8 °F 27% 29.86 in 10.0 mi SE 4.6 mph - N/A   Clear
10:15 PM 37.8 °F - 7.5 °F 29% 29.88 in 10.0 mi Calm Calm - N/A   Clear
10:35 PM 36.5 °F 33.9 °F 10.0 °F 34% 29.89 in 10.0 mi ESE 3.5 mph - N/A   Clear
10:55 PM 34.0 °F 31.0 °F 14.5 °F 45% 29.89 in 10.0 mi ENE 3.5 mph - N/A   Clear
11:15 PM 34.0 °F 29.8 °F 14.4 °F 45% 29.90 in 10.0 mi ENE 4.6 mph - N/A   Clear
11:35 PM 32.9 °F 29.8 °F 16.0 °F 50% 29.89 in 10.0 mi NE 3.5 mph - N/A   Clear
11:55 PM 33.8 °F 28.6 °F 16.2 °F 49% 29.89 in 10.0 mi NNE 5.8 mph - N/A   Clear